Location: Godiavel Galaoual
(15.2485°N, 12.6604°W)
Time: 20:30:40
(UTC+00:00)

AAUSAT CUBESAT 2 - Visible Passes

Search period start: 23 July 2021 00:00
Search period end: 02 August 2021 00:00
Orbit: 571 x 589 km, 97.5° (Epoch: 23 July)

Date Brightness Start Highest point End Pass type
(mag) Time Alt. Az. Time Alt. Az. Time Alt. Az.
23 Jul ? 05:50:40 10° NNE 05:54:41 65° E 05:58:43 10° S visible
24 Jul ? 05:55:39 10° NNE 05:59:43 79° ESE 06:03:46 10° S visible
25 Jul ? 06:00:40 10° N 06:04:43 86° WNW 06:08:48 10° SSW visible
26 Jul ? 06:05:42 10° N 06:09:44 72° WNW 06:13:47 10° SSW visible
31 Jul ? 04:58:50 10° E 04:59:32 10° E 05:00:14 10° ESE visible
01 Aug ? 05:02:48 10° ENE 05:04:34 12° E 05:06:19 10° SE visible
